AO-07 1 07530U 74089B 24347.24782823 -.00000011 00000-0 21854-3 0 9995 2 07530 101.9898 343.6369 0012391 104.1447 267.4351 12.53683731291351 UO-11 1 14781U 84021B 24347.49648848 .00002369 00000-0 26231-3 0 9994 2 14781 97.7298 311.8288 0007087 197.0191 163.0789 14.88236831174994 AO-27 1 22825U 93061C 24347.60798853 .00000259 00000-0 11658-3 0 9994 2 22825 98.7653 42.0399 0007338 278.0174 82.0176 14.30679136628398 FO-29 1 24278U 96046B 24347.31036305 .00000034 00000-0 68081-4 0 9993 2 24278 98.5879 258.6482 0350966 86.9429 277.1804 13.53225016398527 NOAA-15 1 25338U 98030A 24347.72091176 .00000345 00000-0 15988-3 0 9990 2 25338 98.5533 11.0092 0010669 157.3664 202.7989 14.26823713382897 GO-32 1 25397U 98043D 24347.41162688 .00000228 00000-0 11885-3 0 9994 2 25397 98.9479 317.0343 0001797 41.1643 318.9671 14.24210057372786 ISS 1 25544U 98067A 24347.68930978 .00019283 00000-0 33842-3 0 9996 2 25544 51.6399 151.0098 0007262 333.4429 132.8004 15.50528401486236 NO-44 1 26931U 01043C 24347.38405214 .00000405 00000-0 18312-3 0 9993 2 26931 67.0502 231.0891 0006780 260.6649 99.3686 14.31538076211453 SO-50 1 27607U 02058C 24347.55821869 .00002202 00000-0 30255-3 0 9995 2 27607 64.5558 32.6862 0034760 23.3637 336.9037 14.80493868182922 CO-55 1 27844U 03031E 24347.48837557 .00000798 00000-0 36885-3 0 9996 2 27844 98.6777 352.0963 0009559 354.0393 6.0670 14.23697248113150 CO-57 1 27848U 03031J 24347.28521309 .00000671 00000-0 31675-3 0 9995 2 27848 98.6806 352.0312 0009763 11.2702 348.8694 14.23075587112864 RS-22 1 27939U 03042A 24347.74806895 .00002328 00000-0 38442-3 0 9995 2 27939 98.3073 147.1903 0011051 211.8397 204.9336 14.71364053134522 NOAA-18 1 28654U 05018A 24347.75110008 .00000349 00000-0 20919-3 0 9991 2 28654 98.8612 63.1288 0013242 277.0181 82.9486 14.13450466 8488 CO-58 1 28895U 05043F 24347.34307104 .00003542 00000-0 60323-3 0 9997 2 28895 98.2234 123.9242 0015555 151.6710 208.5344 14.69613694 20600 CO-65 1 32785U 08021C 24347.89383184 .00006983 00000-0 55236-3 0 9990 2 32785 97.7700 312.4376 0013102 105.2960 254.9713 15.00881154902312 AAUSAT2 1 32788U 08021F 24347.75090452 .00052282 00000-0 14484-2 0 9993 2 32788 97.6041 330.7582 0001065 79.3135 280.8228 15.36790459905648 CO-66 1 32791U 08021J 24346.87527403 .00016664 00000-0 99346-3 0 9995 2 32791 97.7101 318.1123 0007305 70.0565 290.1451 15.11222088903280 RS-30 1 32953U 08025A 24347.73777058 .00000042 00000-0 22978-3 0 9998 2 32953 82.5031 338.4276 0020660 76.2387 284.0991 12.43155028751314 PRISM 1 33493U 09002B 24347.61296512 .00059660 00000-0 14754-2 0 9994 2 33493 98.1777 52.7486 0007763 347.0295 13.0748 15.40226135866291 NOAA-19 1 33591U 09005A 24347.72881805 .00000334 00000-0 20225-3 0 9998 2 33591 99.0248 45.2266 0014373 146.0171 214.1924 14.13227311816843 SRMSAT 1 37841U 11058D 24347.81024892 .00000578 00000-0 17085-3 0 9996 2 37841 19.9701 156.2620 0011696 258.8681 228.7789 14.11308657680042 RS-40 1 38735U 12041C 24347.75915717 .00000016 00000-0 41016-4 0 9999 2 38735 82.4772 58.5349 0017658 186.6380 173.4468 12.42621856561441 ZACUBE-1 1 39417U 13066B 24347.82929870 .00008383 00000-0 78924-3 0 9990 2 39417 97.7576 300.4743 0044973 289.6936 69.9434 14.93331266598205 Delfi-N3xt 1 39428U 13066N 24347.47909348 .00009338 00000-0 10541-2 0 9992 2 39428 97.8371 261.6945 0089966 228.0878 131.2640 14.83826751592478 GOMX-1 1 39430U 13066Q 24347.71443579 .00003051 00000-0 49068-3 0 9994 2 39430 97.7044 211.2450 0136960 44.6087 316.6043 14.66139637589181 LO-74 1 39440U 13066AA 24347.80985865 .00006524 00000-0 70609-3 0 9997 2 39440 97.8315 288.1897 0067529 49.8621 310.8484 14.86915409596046 AO-73 1 39444U 13066AE 24347.37880512 .00010642 00000-0 90116-3 0 9997 2 39444 97.7431 303.7603 0040693 267.4467 92.2096 14.97537623596721 DTUSAT-2 1 40030U 14033W 24347.37700593 .00010811 00000-0 79371-3 0 9993 2 40030 98.0327 305.4030 0009151 314.1938 45.8534 15.03622770569426 EO-80 1 40032U 14033Y 24347.60635617 .00009301 00000-0 68250-3 0 9991 2 40032 98.0230 305.5374 0006646 237.8926 122.1654 15.03702032569430 XW-2C 1 40906U 15049H 24347.72912224 .00120246 00000-0 96834-3 0 9995 2 40906 97.4552 11.8666 0005125 37.3747 322.7871 15.70535890512185 LILACSAT-2 1 40908U 15049K 24347.77183641 .00012798 00000-0 40748-3 0 9990 2 40908 97.5188 358.4875 0012958 80.8045 279.4662 15.32626452510784 IO-86 1 40931U 15052B 24337.09180034 .00002217 00000-0 20975-3 0 9992 2 40931 5.9986 232.5457 0013173 302.5393 57.3463 14.78392648496340 ChubuSat-2 1 41338U 16012B 24347.35251635 .00008640 00000-0 48079-3 0 9998 2 41338 31.0014 320.9443 0011052 230.1270 129.8397 15.12272306484553 ChubuSat-3 1 41339U 16012C 24347.32142706 .00007889 00000-0 45142-3 0 9996 2 41339 31.0080 321.0857 0011134 231.6849 128.2788 15.11240394484421 Horyu-4 1 41340U 16012D 24347.76544853 .00020970 00000-0 79206-3 0 9999 2 41340 31.0002 244.5096 0008997 354.0503 6.0031 15.25770247485358 Lapan A3 1 41603U 16040E 24347.75389471 .00004550 00000-0 17045-3 0 9993 2 41603 97.1386 353.6370 0011354 177.2246 182.9059 15.27697208470462 Pratham 1 41783U 16059A 24347.49602948 .00001498 00000-0 28117-3 0 9990 2 41783 97.8290 358.4927 0032148 172.0142 188.1581 14.65764605438655 CAS-2T 1 41847U 16066G 24347.30712326 .00001857 00000-0 27549-3 0 9998 2 41847 98.4435 57.2575 0349526 0.5972 359.5567 14.42533483425167 CAS-4B 1 42759U 17034B 24347.74934615 .00035613 00000-0 83582-3 0 9998 2 42759 43.0143 288.8918 0013420 132.8465 227.3521 15.41324983414828 CAS-4A 1 42761U 17034D 24347.79479478 .00035079 00000-0 81477-3 0 9994 2 42761 43.0178 286.7645 0014463 141.5515 218.6375 15.41628135414842 D-SAT 1 42794U 17036AF 24347.76109559 .00010190 00000-0 63233-3 0 9996 2 42794 97.4951 323.7515 0099255 260.4142 98.5859 15.05818361407573 TechnoSat 1 42829U 17042E 24347.48078961 .00005308 00000-0 43720-3 0 9997 2 42829 97.3845 158.9723 0012417 189.1873 170.9126 14.99409779403866 AO-91 1 43017U 17073E 24347.62953177 .00010752 00000-0 59525-3 0 9997 2 43017 97.5481 217.2046 0193324 54.2789 307.6249 14.99383406382348 S-Net D 1 43186U 18014G 24347.21652933 .00008788 00000-0 56676-3 0 9991 2 43186 97.5762 246.1911 0011182 113.6760 246.5643 15.08482963375305 S-Net B 1 43187U 18014H 24347.28630061 .00008489 00000-0 54770-3 0 9998 2 43187 97.5767 246.2215 0012051 110.2429 250.0097 15.08469036375310 S-Net A 1 43188U 18014J 24347.28377347 .00008624 00000-0 55606-3 0 9994 2 43188 97.5775 246.3478 0011913 110.9530 249.2974 15.08486704375313 S-Net C 1 43189U 18014K 24347.28834627 .00008279 00000-0 53403-3 0 9993 2 43189 97.5789 246.3351 0013709 104.8227 255.4521 15.08466064373861 Ten-Koh 1 43677U 18084G 24347.38503869 .00005205 00000-0 43840-3 0 9994 2 43677 98.0777 146.7200 0014203 144.8723 215.3438 14.98600932333384 PO-101 1 43678U 18084H 24347.72680864 .00002839 00000-0 25309-3 0 9994 2 43678 98.0858 151.3725 0009228 154.9498 205.2172 14.96834205333610 QO-100 1 43700U 18090A 24347.52788622 .00000159 00000-0 00000-0 0 9997 2 43700 0.0177 320.8849 0002398 338.8209 357.8466 1.00271233 22147 MinXSS-2 1 43758U 18099A 24347.12599081 .00018854 00000-0 94980-3 0 9998 2 43758 97.5319 47.4351 0014986 66.5064 293.7742 15.17126701329685 AO-95 1 43770U 18099N 24347.15419615 .00012445 00000-0 73201-3 0 9992 2 43770 97.5227 41.6283 0013451 111.1821 249.0848 15.11720454329399 RANGE-B 1 43772U 18099Q 24347.63431795 .00019733 00000-0 92865-3 0 9994 2 43772 97.5019 46.6099 0004444 20.7090 339.4324 15.19579529329728 RANGE-A 1 43773U 18099R 24347.60622507 .00006449 00000-0 44496-3 0 9992 2 43773 97.4789 35.2724 0013770 86.2852 273.9950 15.06049442329253 MOVE-II 1 43780U 18099Y 24347.41324306 .00051712 00000-0 16066-2 0 9999 2 43780 97.4967 50.3892 0005044 75.2649 284.9152 15.33167331330054 SNUSat 2 1 43782U 18099AA 24347.37875309 .00010868 00000-0 67119-3 0 9993 2 43782 97.4903 39.9393 0014287 55.7397 304.5183 15.09970938329416 SnugLite 1 43784U 18099AC 24347.15367581 .00012811 00000-0 74923-3 0 9990 2 43784 97.4722 39.0370 0005183 67.6929 292.4850 15.11983715329473 ITASat 1 1 43786U 18099AE 24347.08893030 .00009353 00000-0 59486-3 0 9991 2 43786 97.4878 39.6140 0017128 103.6027 256.7111 15.08898037329358 EAGLET 1 1 43790U 18099AJ 24347.43283324 .00007404 00000-0 50717-3 0 9997 2 43790 97.5065 40.3410 0014128 83.9310 276.3526 15.06265992329076 ESEO 1 43792U 18099AL 24347.73143462 .00002732 00000-0 21635-3 0 9996 2 43792 97.4839 36.0969 0009830 53.6785 306.5346 15.01351329328970 CSIM 1 43793U 18099AM 24347.45430985 .00050559 00000-0 15924-2 0 9998 2 43793 97.5121 52.2882 0008836 49.3753 310.8256 15.32711963329902 JO-97 1 43803U 18099AX 24347.64697530 .00014001 00000-0 76907-3 0 9993 2 43803 97.4969 42.8768 0009453 53.7558 306.4546 15.14188007329639 Suomi 100 1 43804U 18099AY 24347.42836868 .00012932 00000-0 74009-3 0 9991 2 43804 97.5042 42.3360 0014989 53.3878 306.8729 15.12679875329562 ISAT 1 43879U 18111D 24347.54759672 .00018807 00000-0 88391-3 0 9994 2 43879 97.6070 253.2567 0013572 98.8417 261.4354 15.19563863326415 UWE-4 1 43880U 18111E 24346.97493954 .00017379 00000-0 86723-3 0 9990 2 43880 97.5996 252.1409 0016394 111.1281 249.1706 15.17458018326315 Sparrow 1 43881U 18111F 24347.51315827 .00019724 00000-0 90729-3 0 9991 2 43881 97.6180 255.5219 0009956 129.8127 230.3986 15.20334446326481 Prox-1 1 44339U 19036A 24347.79096190 .00014530 00000-0 21408-2 0 9993 2 44339 23.9967 150.8201 0006862 197.3578 162.6683 14.73658998291644 SONATE 1 44400U 19038Q 24347.59765385 .00041720 00000-0 73437-3 0 9992 2 44400 97.7120 351.5626 0011531 172.0666 188.0769 15.50272718301558 Taurus 1 1 44530U 19059C 24347.75681239 .00010720 00000-0 21893-2 0 9996 2 44530 98.5890 113.5210 0010710 225.6596 134.3727 14.61042311277785 Duchifat 3 1 44854U 19089C 24347.48995286 .00032411 00000-0 11375-2 0 9993 2 44854 36.9514 37.8962 0011173 156.7176 203.4083 15.28501005275445 TO-108 1 44881U 19093C 24347.76060699 .00001937 00000-0 23393-3 0 9993 2 44881 97.8136 61.0672 0015406 97.6395 262.6570 14.84822681269535 FloripaSat 1 1 44885U 19093G 24347.71797685 .00008492 00000-0 78601-3 0 9999 2 44885 97.8310 69.3448 0012557 84.9414 275.3239 14.94713135269997 RS-44 1 44909U 19096E 24347.52066284 .00000037 00000-0 10781-3 0 9994 2 44909 82.5215 346.2717 0217379 354.5734 5.3012 12.79736887231837 UPMSat 2 1 46276U 20061E 24347.21600723 .00036506 00000-0 72958-3 0 9999 2 46276 97.2746 52.5339 0000982 155.2703 204.8594 15.46718744237563 AmicalSat 1 46287U 20061R 24347.59393724 .00255071 00000-0 14704-2 0 9996 2 46287 97.3175 58.2320 0002994 275.8522 84.2403 15.77966487237212 SALSAT 1 46495U 20068K 24347.36386659 .00010850 00000-0 53333-3 0 9994 2 46495 97.8394 311.9726 0014915 65.5657 294.7130 15.18131117231295 CubeSX-Sirius-HSE 1 47951U 21022V 24347.74823995 .00048797 00000-0 11100-2 0 9990 2 47951 97.4406 247.2578 0007218 205.8674 154.2214 15.42805521205923 CubeSX-HSE 1 47952U 21022W 24347.74276427 .00044772 00000-0 10071-2 0 9998 2 47952 97.4402 247.4002 0007324 203.6891 156.4020 15.43160016205933 KSU-Cubesat 1 47954U 21022Y 24347.21123991 .00092966 00000-0 15014-2 0 9999 2 47954 97.4406 249.5769 0005902 178.8691 181.2576 15.52534428205746 GRBAlpha 1 47959U 21022AD 24347.76588568 .00047611 00000-0 10712-2 0 9996 2 47959 97.4403 247.5914 0007264 203.6381 156.4533 15.43139228204761 Orbicraft-Zorkiy 1 47960U 21022AE 24347.76851546 .00066645 00000-0 12261-2 0 9996 2 47960 97.4438 249.8749 0005871 190.4019 169.7111 15.48952507205572 TUBIN 1 48900U 21059X 24347.76470005 .00030249 00000-0 70072-3 0 9994 2 48900 97.6611 139.2883 0005303 170.7616 189.3729 15.42378807192327 LEDSAT 1 49069U 21073D 24347.62488744 .00032748 00000-0 86869-3 0 9998 2 49069 97.4171 58.8107 0014607 12.0393 348.1198 15.38138291183742 CUTE 1 49263U 21088D 24347.18891037 .00041675 00000-0 12438-2 0 9993 2 49263 97.4764 53.3822 0011082 169.6015 190.5459 15.34449355176781 TeikyoSat 4 1 49396U 21102B 24347.53882551 .00003854 00000-0 26656-3 0 9992 2 49396 97.4370 26.3240 0013622 32.3736 327.8324 15.06203853169589 Z-Sat 1 49399U 21102E 24347.74088376 .00006513 00000-0 38457-3 0 9998 2 49399 97.4083 28.6574 0019281 7.9507 352.2026 15.11692170169939 KOSEN 1 1 49402U 21102H 24347.08630908 .00009795 00000-0 50936-3 0 9995 2 49402 97.4003 30.2540 0016921 350.6278 9.4637 15.16134672170056 HO-113 1 50466U 21131B 24347.77464391 .00001127 00000-0 36935-3 0 9990 2 50466 98.5212 72.0162 0003367 323.2865 36.8092 14.40341218155700 IRIS-A 1 51044U 22002BN 24347.15595157 .00053464 00000-0 10108-2 0 9992 2 51044 97.3610 54.5741 0004726 113.4935 246.6813 15.48232277161787 Foresail-1 1 52766U 22057AL 24347.63536551 .00044996 00000-0 84469-3 0 9992 2 52766 97.5969 119.4106 0007226 216.0492 144.0272 15.48461565141894 SNUGLITE 2 1 52899U 22065F 24347.61369647 .00002231 00000-0 45209-3 0 9991 2 52899 98.1421 125.7457 0006831 320.6951 39.3754 14.62215769130328 IO-117 1 53106U 22080B 24346.40082951 -.00000003 00000-0 00000+0 0 9998 2 53106 70.1337 130.9545 0008301 67.0662 293.0873 6.42557702 56656 FO-118 1 54684U 22167C 24347.78166552 .00103978 00000-0 14213-2 0 9996 2 54684 97.6132 139.8684 0007508 240.7023 119.3482 15.57060049111798 SSS-2B 1 56184U 23054G 24347.77067686 .00636492 17531-3 15056-2 0 9994 2 56184 97.3317 251.2539 0006939 116.3165 243.8825 15.96746660 93928 SO-120 1 56992U 23084BU 24347.60109187 .00129518 00000-0 16059-2 0 9999 2 56992 97.5360 112.1416 0003128 108.1778 251.9819 15.59601997 83632 MRC-100 1 56993U 23084BV 24347.82740584 .00344208 00000-0 20040-2 0 9996 2 56993 97.5298 114.3284 0002516 312.2566 47.8486 15.77502466 83805 UmKA 1 (RS40S) 1 57172U 23091G 24347.79057649 .00007102 00000-0 41959-3 0 9995 2 57172 97.5882 38.2641 0014466 227.0628 132.9390 15.11721203 80430 CubeBel-2 (EU11S) 1 57175U 23091K 24347.78423608 .00010254 00000-0 56888-3 0 9998 2 57175 97.5882 38.5679 0012542 238.6075 121.3930 15.13887714 80450 VERONIKA 1 58261U 23174F 24347.77335680 .00039876 00000-0 11122-2 0 9990 2 58261 97.4414 62.3906 0008603 331.8445 28.2332 15.36610346 60971 KAFASAT 1 58317U 23174BP 24347.52694872 .00071422 00000-0 14106-2 0 9994 2 58317 97.4338 64.0997 0007499 299.9374 60.1131 15.46871120 61089 ENSO 1 58470U 23185J 24347.78344824 .00030151 00000-0 86034-3 0 9997 2 58470 97.4039 53.7843 0009813 10.6724 349.4726 15.35946551 57426 EIRSAT-1 1 58472U 23185L 24347.80389095 .00038632 00000-0 10172-2 0 9992 2 58472 97.4031 54.1780 0009077 9.0968 351.0439 15.38398925 57451 SONATE-2 1 59112U 24043Q 24347.32518002 .00015761 00000-0 60033-3 0 9997 2 59112 97.4950 110.3842 0013241 33.3008 326.9061 15.26729237 42907 MO-122 1 60209U 24125G 24347.56588088 .00017029 00000-0 64267-3 0 9996 2 60209 97.2984 196.0916 0024655 57.5141 302.8477 15.26805368 24556 GRBBeta 1 60237U 24128C 24347.57349500 .00006086 00000-0 50084-3 0 9998 2 60237 61.9939 342.4069 0031136 12.9346 347.2535 14.99769934 23324 Curium One 1 60242U 24128H 24347.26819661 .00011673 00000-0 92940-3 0 9995 2 60242 61.9844 343.5182 0031300 4.9296 355.2095 15.00389771 23286 ROBUSTA-3A 1 60243U 24128J 24347.35941389 .00009917 00000-0 79904-3 0 9992 2 60243 61.9912 343.5236 0029400 2.7646 357.3600 15.00107020 23297 CatSat 1 60246U 24125J 24347.82104925 .00014393 00000-0 56601-3 0 9994 2 60246 97.2783 197.0899 0048481 10.8736 349.3538 15.24650651 22698 CySat-1 1 61501U 98067WZ 24347.83140246 .00277490 00000-0 16094-2 0 9992 2 61501 51.6273 144.6583 0013286 282.0173 77.9338 15.77073640 10269 AO-123 1 61781U 24199AY 24347.80600981 .00010127 00000-0 42052-3 0 9997 2 61781 97.3799 212.0032 0019112 106.8236 253.5099 15.23855779 49614 /EX
